FW7886 Weather Reports


Display with metric or nautical units.
time (UTC)temp
F
wind
direction
speed
MPH
gust
MPH
rain 1hr
in
rain 24hr
in
rain mn
in
humidity
%
barometer
mb
20260905171128 91 156 0.0 4.0 0.00 0.00 0.00 75 1013.4
20260905170621 91 156 0.0 4.0 0.00 0.00 0.00 74 1013.3
20260905170114 91 140 0.0 4.0 0.00 0.00 0.00 74 1013.3
20260905165608 92 171 1.0 4.0 0.00 0.00 0.00 74 1013.2
20260905165102 91 175 1.0 4.0 0.00 0.00 0.00 79 1013.3
20260905164556 90 133 0.0 4.0 0.00 0.00 0.00 78 1013.3
20260905164319 89 113 0.0 3.0 0.00 0.00 0.00 78 1013.5
20260905163544 89 132 0.0 4.0 0.00 0.00 0.00 79 1013.6
20260905163041 89 134 0.0 4.0 0.00 0.00 0.00 78 1013.4
20260905162541 90 100 1.0 4.0 0.00 0.00 0.00 79 1013.4
20260905162041 90 126 1.0 4.0 0.00 0.00 0.00 76 1013.5
20260905161800 91 154 1.0 8.0 0.00 0.00 0.00 76 1013.4
20260905161040 91 150 1.0 10.0 0.00 0.00 0.00 78 1013.4
20260905160539 90 125 1.0 10.0 0.00 0.00 0.00 78 1013.4
20260905160259 90 108 1.0 5.0 0.00 0.00 0.00 78 1013.6
20260905155541 90 119 1.0 6.0 0.00 0.00 0.00 79 1013.6
20260905155041 89 121 1.0 8.0 0.00 0.00 0.00 80 1013.6
20260905154536 90 111 1.0 8.0 0.00 0.00 0.00 78 1013.5
20260905154039 89 124 1.0 5.0 0.00 0.00 0.00 80 1013.4
20260905153537 89 136 1.0 6.0 0.00 0.00 0.00 80 1013.4
20260905153036 88 104 1.0 6.0 0.00 0.00 0.00 82 1013.5
20260905152533 87 158 3.0 5.0 0.00 0.00 0.00 83 1013.5
20260905152032 87 99 1.0 5.0 0.00 0.00 0.00 81 1013.6
20260905151531 87 105 1.0 5.0 0.00 0.00 0.00 82 1013.5
20260905151031 87 155 1.0 4.0 0.00 0.00 0.00 83 1013.5
20260905150530 87 129 1.0 4.0 0.00 0.00 0.00 83 1013.5
20260905150030 86 122 1.0 4.0 0.00 0.00 0.00 84 1013.4
20260905145522 86 126 1.0 4.0 0.00 0.00 0.00 83 1013.4
20260905145016 86 161 1.0 4.0 0.00 0.00 0.00 83 1013.4
20260905144510 86 154 0.0 4.0 0.00 0.00 0.00 87 1013.3
20260905144004 86 130 0.0 4.0 0.00 0.00 0.00 86 1013.2
20260905143458 85 109 0.0 4.0 0.00 0.00 0.00 86 1013.3
20260905142952 85 128 0.0 1.0 0.00 0.00 0.00 89 1013.4
20260905142446 84 119 0.0 4.0 0.00 0.00 0.00 87 1013.4
20260905141940 85 127 1.0 4.0 0.00 0.00 0.00 86 1013.3
20260905141434 85 166 0.0 6.0 0.00 0.00 0.00 86 1013.3
20260905141151 85 148 1.0 6.0 0.00 0.00 0.00 84 1013.3
20260905140430 86 135 1.0 5.0 0.00 0.00 0.00 85 1013.2
20260905135930 87 168 1.0 5.0 0.00 0.00 0.00 81 1013.3
20260905135429 86 144 0.0 4.0 0.00 0.00 0.00 83 1013.4
20260905134929 86 128 0.0 4.0 0.00 0.00 0.00 87 1013.4
20260905134428 85 136 0.0 5.0 0.00 0.00 0.00 89 1013.4
20260905133931 85 143 0.0 5.0 0.00 0.00 0.00 88 1013.3
20260905133427 84 138 0.0 3.0 0.00 0.00 0.00 92 1013.3
20260905132928 83 139 0.0 3.0 0.00 0.00 0.00 92 1013.3
20260905132427 82 139 0.0 1.0 0.00 0.00 0.00 94 1013.3
20260905131928 81 139 0.0 1.0 0.00 0.00 0.00 95 1013.2
20260905131428 81 139 0.0 0.0 0.00 0.00 0.00 96 1013.2
20260905131145 80 139 0.0 0.0 0.00 0.00 0.00 97 1013.2
20260905130423 80 139 0.0 0.0 0.00 0.00 0.00 97 1013.4
20260905125925 80 139 0.0 0.0 0.00 0.00 0.00 97 1013.3
20260905125424 79 139 0.0 0.0 0.00 0.00 0.00 97 1013.4
20260905124921 79 139 0.0 0.0 0.00 0.00 0.00 97 1013.5
20260905124422 79 139 0.0 0.0 0.00 0.00 0.00 98 1013.4
20260905123917 79 139 0.0 0.0 0.00 0.00 0.00 98 1013.4
20260905123417 78 139 0.0 0.0 0.00 0.00 0.00 98 1013.4
20260905122919 78 139 0.0 0.0 0.00 0.00 0.00 98 1013.5
20260905122416 78 139 0.0 0.0 0.00 0.00 0.00 99 1013.5
20260905121913 78 139 0.0 0.0 0.00 0.00 0.00 99 1013.5
20260905121413 78 139 0.0 0.0 0.00 0.00 0.00 99 1013.3
20260905120912 78 139 0.0 0.0 0.00 0.00 0.00 99 1013.4
20260905120410 78 139 0.0 0.0 0.00 0.00 0.00 99 1013.4
20260905115908 78 139 0.0 0.0 0.00 0.00 0.00 99 1013.3
20260905115405 78 139 0.0 0.0 0.00 0.00 0.00 99 1013.2
20260905114903 77 139 0.0 0.0 0.00 0.00 0.00 99 1013.1
20260905114402 78 139 0.0 0.0 0.00 0.00 0.00 99 1013.0
20260905113902 78 139 0.0 0.0 0.00 0.00 0.00 99 1012.9
20260905113400 78 139 0.0 0.0 0.00 0.00 0.00 99 1012.9
20260905112858 78 139 0.0 0.0 0.00 0.00 0.00 99 1012.8
20260905112356 78 139 0.0 0.0 0.00 0.00 0.00 99 1012.7
20260905111856 78 139 0.0 0.0 0.00 0.00 0.00 100 1012.6
20260905111352 77 139 0.0 0.0 0.00 0.00 0.00 100 1012.6
20260905110852 77 139 0.0 0.0 0.00 0.00 0.00 99 1012.5
20260905110353 77 139 0.0 0.0 0.00 0.00 0.00 99 1012.5
20260905105852 77 139 0.0 0.0 0.00 0.00 0.00 99 1012.5
20260905105619 77 139 0.0 0.0 0.00 0.00 0.00 99 1012.3
20260905104852 77 139 0.0 0.0 0.00 0.00 0.00 99 1012.4
20260905104608 77 139 0.0 0.0 0.00 0.00 0.00 99 1012.3
20260905104119 77 139 0.0 0.0 0.00 0.00 0.00 99 1012.3
20260905103610 77 139 0.0 0.0 0.00 0.00 0.00 99 1012.3
20260905102852 77 139 0.0 0.0 0.00 0.00 0.00 99 1012.4
20260905102351 77 139 0.0 0.0 0.00 0.00 0.00 99 1012.2
20260905101851 77 139 0.0 0.0 0.00 0.00 0.00 99 1012.2
20260905101619 77 139 0.0 0.0 0.00 0.00 0.00 98 1012.2
20260905100851 78 139 0.0 0.0 0.00 0.00 0.00 98 1012.3
20260905100351 78 139 0.0 0.0 0.00 0.00 0.00 98 1012.4
20260905095854 78 139 0.0 0.0 0.00 0.00 0.00 99 1012.3
20260905095354 78 139 0.0 0.0 0.00 0.00 0.00 99 1012.3
20260905094852 78 139 0.0 0.0 0.00 0.00 0.00 99 1012.3
20260905094343 78 139 0.0 0.0 0.00 0.00 0.00 98 1012.2
20260905094054 78 139 0.0 0.0 0.00 0.00 0.00 99 1012.3
20260905093558 78 139 0.0 0.0 0.00 0.00 0.00 99 1012.2
20260905092828 78 139 0.0 0.0 0.00 0.00 0.00 99 1012.2
20260905092322 78 139 0.0 0.0 0.00 0.00 0.00 99 1012.1
20260905091816 78 139 0.0 0.0 0.00 0.00 0.00 99 1012.2
20260905091529 78 139 0.0 0.0 0.00 0.00 0.00 99 1012.2
20260905090800 77 139 0.0 0.0 0.00 0.00 0.00 99 1012.3
20260905090254 77 139 0.0 0.0 0.00 0.00 0.00 98 1012.2
20260905085748 77 139 0.0 0.0 0.00 0.00 0.00 98 1012.2
20260905085242 77 139 0.0 0.0 0.00 0.00 0.00 98 1012.4
20260905084737 78 139 0.0 0.0 0.00 0.00 0.00 98 1012.3
20260905084230 78 139 0.0 0.0 0.00 0.00 0.00 98 1012.3
20260905083724 78 139 0.0 0.0 0.00 0.00 0.00 98 1012.4
20260905083217 78 139 0.0 0.0 0.00 0.00 0.00 98 1012.4
20260905082712 78 139 0.0 0.0 0.00 0.00 0.00 98 1012.3
20260905082429 78 139 0.0 0.0 0.00 0.00 0.00 98 1012.2
20260905082147 78 139 0.0 0.0 0.00 0.00 0.00 98 1012.2
20260905081154 78 139 0.0 0.0 0.00 0.00 0.00 98 1012.3
20260905080648 78 139 0.0 0.0 0.00 0.00 0.00 98 1012.3
20260905080142 78 139 0.0 0.0 0.00 0.00 0.00 98 1012.1
20260905075858 78 139 0.0 0.0 0.00 0.00 0.00 97 1012.3
20260905075129 78 139 0.0 0.0 0.00 0.00 0.00 97 1012.1
20260905074624 78 139 0.0 0.0 0.00 0.00 0.00 97 1012.2
20260905074339 78 139 0.0 0.0 0.00 0.00 0.00 97 1012.2
20260905073611 79 139 0.0 0.0 0.00 0.00 0.00 97 1012.2
20260905073106 79 139 0.0 0.0 0.00 0.00 0.00 97 1012.3
20260905072600 79 139 0.0 0.0 0.00 0.00 0.00 98 1012.3
20260905072054 78 139 0.0 0.0 0.00 0.00 0.00 97 1012.3
20260905071549 78 139 0.0 0.0 0.00 0.00 0.00 97 1012.3
20260905071042 78 139 0.0 0.0 0.00 0.00 0.00 97 1012.2
20260905070535 78 139 0.0 0.0 0.00 0.00 0.00 97 1012.2
20260905070029 79 139 0.0 0.0 0.00 0.00 0.00 96 1012.2
20260905065525 79 139 0.0 0.0 0.00 0.00 0.00 96 1012.2
20260905065018 79 139 0.0 0.0 0.00 0.00 0.00 97 1012.3
20260905064512 79 139 0.0 0.0 0.00 0.00 0.00 97 1012.3
20260905064006 79 139 0.0 0.0 0.00 0.00 0.00 97 1012.5
20260905063723 79 139 0.0 0.0 0.00 0.00 0.00 97 1012.3
20260905063444 79 139 0.0 0.0 0.00 0.00 0.00 96 1012.3
20260905062448 79 140 0.0 0.0 0.00 0.00 0.00 96 1012.1
20260905062200 79 140 0.0 0.0 0.00 0.00 0.00 95 1012.1
20260905061437 79 140 0.0 0.0 0.00 0.00 0.00 95 1012.2
20260905060931 79 140 0.0 0.0 0.00 0.00 0.00 95 1012.2
20260905060923 80 140 0.0 0.0 0.00 0.00 0.00 95 1012.3
20260905055917 80 140 0.0 0.0 0.00 0.00 0.00 95 1012.2
20260905055412 80 140 0.0 0.0 0.00 0.00 0.00 95 1012.3
20260905054906 80 140 0.0 0.0 0.00 0.00 0.00 95 1012.4
20260905054400 80 140 0.0 0.0 0.00 0.00 0.00 95 1012.5
20260905053854 80 140 0.0 0.0 0.00 0.00 0.00 95 1012.6
20260905053610 80 140 0.0 0.0 0.00 0.00 0.00 95 1012.5
20260905052840 80 140 0.0 0.0 0.00 0.00 0.00 95 1012.6
20260905052335 80 140 0.0 0.0 0.00 0.00 0.00 95 1012.5
20260905051828 80 140 0.0 0.0 0.00 0.00 0.00 94 1012.5
20260905051323 80 140 0.0 0.0 0.00 0.00 0.00 94 1012.3
20260905050817 80 140 0.0 0.0 0.00 0.00 0.00 94 1012.5
20260905050310 80 140 0.0 0.0 0.00 0.00 0.00 94 1012.5
20260905050022 80 140 0.0 0.0 0.00 0.00 0.00 94 1012.6
20260905045256 80 140 0.0 0.0 0.00 0.00 0.00 94 1012.5
20260905045017 80 140 0.0 0.0 0.00 0.00 0.00 94 1012.6
20260905044248 80 140 0.0 0.0 0.00 0.00 0.00 94 1012.5
20260905043747 80 144 0.0 0.0 0.00 0.00 0.00 93 1012.6
20260905043248 80 144 0.0 0.0 0.00 0.00 0.00 92 1012.5
20260905042748 81 144 0.0 0.0 0.00 0.00 0.00 93 1012.5
20260905042245 81 144 0.0 0.0 0.00 0.00 0.00 92 1012.7
20260905041746 81 144 0.0 0.0 0.00 0.00 0.00 92 1012.6
20260905041242 81 144 0.0 0.0 0.00 0.00 0.00 92 1012.6
20260905040744 81 134 0.0 3.0 0.00 0.00 0.00 92 1012.7
20260905040242 81 135 1.0 3.0 0.00 0.00 0.00 91 1012.7
20260905035741 81 135 0.0 1.0 0.00 0.00 0.00 92 1012.6
20260905035239 81 133 0.0 1.0 0.00 0.00 0.00 92 1012.7
20260905034737 81 133 0.0 1.0 0.00 0.00 0.00 91 1012.9
20260905034237 81 133 0.0 1.0 0.00 0.00 0.00 91 1012.9
20260905033732 81 133 0.0 1.0 0.00 0.00 0.00 91 1012.9
20260905033456 81 134 0.0 1.0 0.00 0.00 0.00 91 1012.9
20260905032732 81 134 0.0 1.0 0.00 0.00 0.00 91 1013.0
20260905032233 82 134 0.0 1.0 0.00 0.00 0.00 91 1013.0
20260905031733 82 134 0.0 1.0 0.00 0.00 0.00 91 1013.0
20260905031231 82 135 0.0 1.0 0.00 0.00 0.00 90 1013.1
20260905030729 82 135 0.0 1.0 0.00 0.00 0.00 90 1013.3
20260905030223 82 135 0.0 1.0 0.00 0.00 0.00 91 1013.3
20260905025717 82 135 0.0 1.0 0.00 0.00 0.00 91 1013.3
20260905025211 82 135 0.0 0.0 0.00 0.00 0.00 90 1013.3
20260905024705 82 135 0.0 1.0 0.00 0.00 0.00 90 1013.3
20260905024158 82 135 0.0 1.0 0.00 0.00 0.00 90 1013.4
20260905023653 82 135 0.0 1.0 0.00 0.00 0.00 90 1013.4
20260905023148 82 135 0.0 1.0 0.00 0.00 0.00 89 1013.3
20260905022900 82 135 0.0 1.0 0.00 0.00 0.00 89 1013.4
20260905022134 82 135 0.0 0.0 0.00 0.00 0.00 89 1013.4
20260905021629 82 135 0.0 0.0 0.00 0.00 0.00 89 1013.4
20260905021123 82 135 0.0 0.0 0.00 0.00 0.00 89 1013.4
20260905020850 82 135 0.0 0.0 0.00 0.00 0.00 88 1013.5
20260905020111 82 135 0.0 0.0 0.00 0.00 0.00 88 1013.4
20260905015605 82 135 0.0 0.0 0.00 0.00 0.00 88 1013.1
20260905015059 82 135 0.0 0.0 0.00 0.00 0.00 87 1013.2
20260905014554 82 135 0.0 0.0 0.00 0.00 0.00 87 1013.2
20260905014315 83 135 0.0 1.0 0.00 0.00 0.00 87 1013.0
20260905013541 83 135 0.0 1.0 0.00 0.00 0.00 86 1012.9
20260905013255 83 135 0.0 1.0 0.00 0.00 0.00 86 1012.8
20260905012753 83 135 0.0 1.0 0.00 0.00 0.00 85 1012.7
20260905012029 83 135 0.0 1.0 0.00 0.00 0.00 85 1012.6
20260905011751 83 135 0.0 1.0 0.00 0.00 0.00 85 1012.8
20260905011025 84 135 0.0 1.0 0.00 0.00 0.00 85 1012.8
20260905010525 84 135 0.0 1.0 0.00 0.00 0.00 84 1012.7
20260905010020 84 135 0.0 1.0 0.00 0.00 0.00 83 1012.7
20260905005521 84 135 0.0 0.0 0.00 0.00 0.00 83 1012.6
20260905005021 84 135 0.0 0.0 0.00 0.00 0.00 82 1012.6
20260905004518 84 135 0.0 0.0 0.00 0.00 0.00 82 1012.7
20260905004018 85 135 0.0 1.0 0.00 0.00 0.00 82 1012.7
20260905003517 85 135 0.0 1.0 0.00 0.00 0.00 82 1012.8
20260905003017 85 135 0.0 0.0 0.00 0.00 0.00 82 1012.9
20260905002515 85 135 0.0 0.0 0.00 0.00 0.00 82 1012.9
20260905002013 85 135 0.0 0.0 0.00 0.00 0.00 82 1012.7
20260905001511 85 135 0.0 1.0 0.00 0.00 0.00 81 1012.8
20260905001008 85 135 0.0 1.0 0.00 0.00 0.00 81 1012.8
20260905000725 85 135 0.0 1.0 0.00 0.00 0.00 81 1012.8
20260905000222 86 135 0.0 1.0 0.00 0.00 0.00 81 1013.0
20260904235506 86 135 0.0 1.0 0.00 0.00 0.00 80 1012.9
20260904235005 86 135 0.0 3.0 0.00 0.00 0.00 80 1012.6
20260904234504 86 135 0.0 3.0 0.00 0.00 0.00 79 1012.7
20260904234004 86 133 0.0 4.0 0.00 0.00 0.00 79 1012.7
20260904233719 87 132 0.0 4.0 0.00 0.00 0.00 79 1012.7
20260904232952 87 150 0.0 1.0 0.00 0.00 0.00 79 1012.7
20260904232445 87 150 0.0 3.0 0.00 0.00 0.00 78 1012.8
20260904232431 88 153 0.0 3.0 0.00 0.00 0.00 77 1012.5
20260904231703 88 153 0.0 3.0 0.00 0.00 0.00 77 1012.5
20260904230941 88 153 0.0 1.0 0.00 0.00 0.00 76 1012.7
20260904230700 88 153 0.0 1.0 0.00 0.00 0.00 76 1012.5
20260904225937 88 152 0.0 3.0 0.00 0.00 0.00 76 1012.4
20260904225658 89 152 0.0 3.0 0.00 0.00 0.00 75 1012.5
20260904224932 89 151 0.0 3.0 0.00 0.00 0.00 74 1012.4
20260904224650 90 151 0.0 3.0 0.00 0.00 0.00 72 1012.4
20260904223929 90 171 0.0 4.0 0.00 0.00 0.00 73 1012.5
20260904223425 90 177 0.0 4.0 0.00 0.00 0.00 72 1012.4
20260904222928 90 173 1.0 3.0 0.00 0.00 0.00 72 1012.3
20260904222424 90 254 1.0 4.0 0.00 0.00 0.00 72 1012.2
20260904221926 90 268 3.0 5.0 0.00 0.00 0.00 72 1012.1
20260904221424 90 266 3.0 5.0 0.00 0.00 0.00 71 1012.0
20260904220924 90 99 1.0 5.0 0.00 0.00 0.00 71 1012.1
20260904220424 90 242 3.0 6.0 0.00 0.00 0.00 70 1012.2
20260904215924 91 291 1.0 6.0 0.00 0.00 0.00 71 1012.2
20260904215423 90 269 1.0 4.0 0.00 0.00 0.00 73 1012.2
20260904214925 89 182 1.0 4.0 0.00 0.00 0.00 75 1012.3
20260904214419 89 200 1.0 4.0 0.00 0.00 0.00 75 1012.3
20260904213916 88 180 1.0 5.0 0.00 0.00 0.00 74 1012.6
20260904213416 89 301 1.0 5.0 0.00 0.00 0.00 76 1012.5
20260904213139 89 302 1.0 5.0 0.00 0.00 0.00 74 1012.5
20260904212414 90 214 1.0 4.0 0.00 0.00 0.00 73 1012.5
20260904211913 90 187 1.0 4.0 0.00 0.00 0.00 72 1012.5
20260904211635 90 172 0.0 4.0 0.00 0.00 0.00 73 1012.6
20260904210914 90 146 0.0 1.0 0.00 0.00 0.00 71 1012.6
20260904210413 90 147 1.0 3.0 0.00 0.00 0.00 71 1012.7
20260904205913 89 138 1.0 5.0 0.00 0.00 0.00 71 1012.7
20260904205413 89 153 1.0 5.0 0.00 0.00 0.00 71 1012.6
20260904204913 90 310 1.0 4.0 0.00 0.00 0.00 71 1012.6
20260904204411 90 171 1.0 4.0 0.00 0.00 0.00 71 1012.6
20260904203912 90 172 1.0 5.0 0.00 0.00 0.00 69 1012.7
20260904203411 90 130 1.0 5.0 0.00 0.00 0.00 69 1012.8
20260904202913 91 185 1.0 4.0 0.00 0.00 0.00 70 1012.9
20260904202411 91 284 1.0 4.0 0.00 0.00 0.00 68 1012.8
20260904201913 90 150 1.0 5.0 0.00 0.00 0.00 70 1012.8
20260904201413 90 290 3.0 5.0 0.00 0.00 0.00 74 1012.7
20260904201400 90 272 1.0 5.0 0.00 0.00 0.00 74 1012.8
20260904200411 90 274 1.0 6.0 0.00 0.00 0.00 75 1012.8
20260904200135 90 293 3.0 6.0 0.00 0.00 0.00 73 1013.0
20260904195903 89 189 3.0 5.0 0.00 0.00 0.00 76 1013.1
20260904195140 89 320 3.0 5.0 0.00 0.00 0.00 76 1013.2
20260904194411 89 282 3.0 5.0 0.00 0.00 0.00 75 1013.2
20260904193912 89 238 3.0 5.0 0.00 0.00 0.00 77 1013.3
20260904193413 89 255 3.0 5.0 0.00 0.00 0.00 76 1013.4
20260904192911 89 260 1.0 5.0 0.00 0.00 0.00 76 1013.4
20260904192411 89 298 1.0 5.0 0.00 0.00 0.00 76 1013.6
20260904191911 88 317 3.0 6.0 0.00 0.00 0.00 76 1013.7
20260904191408 88 315 1.0 6.0 0.00 0.00 0.00 75 1013.7
20260904190907 89 305 1.0 8.0 0.00 0.00 0.00 75 1013.8
20260904190409 89 310 1.0 9.0 0.00 0.00 0.00 75 1014.0
20260904185903 89 270 1.0 9.0 0.00 0.00 0.00 76 1013.9
20260904185355 89 201 3.0 8.0 0.00 0.00 0.00 75 1014.0
20260904185334 89 289 3.0 8.0 0.00 0.00 0.00 75 1014.0
20260904184824 89 319 1.0 8.0 0.00 0.00 0.00 75 1014.0
20260904184058 89 135 1.0 8.0 0.00 0.00 0.00 74 1014.2
20260904183329 89 260 1.0 5.0 0.00 0.00 0.00 72 1014.3
20260904182824 89 155 1.0 5.0 0.00 0.00 0.00 76 1014.3
20260904182318 88 150 3.0 10.0 0.00 0.00 0.00 75 1014.4
20260904181812 88 296 3.0 10.0 0.00 0.00 0.00 77 1014.3
20260904181306 88 326 3.0 9.0 0.00 0.00 0.00 77 1014.3
20260904180759 88 191 1.0 4.0 0.00 0.00 0.00 78 1014.3
20260904180252 88 138 1.0 4.0 0.00 0.00 0.00 79 1014.3
20260904175746 88 190 1.0 6.0 0.00 0.00 0.00 79 1014.4
20260904175239 87 149 3.0 6.0 0.00 0.00 0.00 80 1014.5
20260904174734 86 298 3.0 8.0 0.00 0.00 0.00 80 1014.4
20260904174227 87 310 3.0 8.0 0.00 0.00 0.00 78 1014.5
20260904173721 88 201 1.0 8.0 0.00 0.00 0.00 79 1014.4
20260904173215 88 305 1.0 3.0 0.00 0.00 0.00 77 1014.5
20260904172709 88 147 1.0 4.0 0.00 0.00 0.00 78 1014.6
20260904172203 88 299 1.0 4.0 0.00 0.00 0.00 77 1014.8
20260904171658 88 177 1.0 4.0 0.00 0.00 0.00 77 1014.8